{"data":{"norad_id":47807,"intl_designator":"2021-018W","name":"STARLINK-2388","alt_names":[],"object_type":"PAYLOAD","status":"ACTIVE","operator":null,"country":"US","launch_date":"2021-03-11","launch_site_code":"AFETR","launch_vehicle":null,"mission":null,"orbit_class":"UNKNOWN","rcs_meters":null,"size_class":null,"mass_kg":null,"dimensions":null,"purposes":["comms"],"wikipedia_slug":null,"has_3d_model":false,"image_url":null,"decayed_at":null,"tle_current":{"epoch":"2026-09-19T22:08:18.991392Z","epoch_age_seconds":75737,"freshness":"FRESH","line1":"1 47807U 21018W   26262.92244203  .00000627  00000+0  31949-4 0  9996","line2":"2 47807  53.1586  32.7734 0001347  73.7131 286.4019 15.31713631306841","mean_motion":15.31713631,"eccentricity":0.0001347,"inclination_deg":53.1586,"raan_deg":32.7734,"arg_perigee_deg":73.7131,"mean_anomaly_deg":286.4019,"bstar":3.1949e-5,"rev_number":30684,"period_min":94.012351320519,"perigee_km":469.77682396729,"apogee_km":471.62190048328,"semimajor_km":6848.8363622253,"source":"CELESTRAK","updated_at":"2026-09-20T09:00:38.747924Z"}}}